FENGYUN 1C DEB

Satellite information

Favourite Embed

Satellite Type and Status

DEBRISIN ORBIT

Key statistics

Satellite FENGYUN 1C DEB at a glance.

Uptime

9664

Days in orbit

Revolutions

≈ 14.6

Per day

Orbit

SSO

Sun Synchronous Orbit

Inclination

98.1

Latest

Satellite identification and parameters

Extended collection of information and parameters for FENGYUN 1C DEB.

Object identification

Identified? True

Debris? True

Object name: FENGYUN 1C DEB

International designator: 1999-025BCZ

Object number (NORAD): 31007

Object ID (CCSDS): 31007

Country: PEOPLES REPUBLIC OF CHINA (PRC)

Current information (Y/N): Y

RCS size: SMALL

Orbital parameters

Period: 98.803 minutes

Inclination: 98.087 deg

SMA: 7079.588 km

Apoapsis: 748.524 km

Periapsis: 654.383 km

RAAN: 289.884 deg

Eccentricy: 0.00664881

Argument of periapsis: 192.1348 deg

Mean anomaly: 167.8253 deg

Mean motion: 14.57440234 rev/day

Mean motion (dot): 0.00009269 rev/day2

B* drag term: 0.0019892522 1/REarth

Two-line elements (TLE)

Creation date: Oct. 24, 2025, 2:48 a.m.

Reference frame: TEME

Reference center: EARTH

Epoch: Oct. 23, 2025, 4:46 p.m. UTC

TLE line 0: 0 FENGYUN 1C DEB

TLE line 1: 1 31007U 99025BCZ 25296.69890844 .00009269 00000-0 19893-2 0 9996

TLE line 2: 2 31007 98.0870 289.8840 0066488 192.1348 167.8253 14.57440234973650

Live tracking on map

Real-time ground track for satellite FENGYUN 1C DEB.

In-orbit conjunctions

A list of the most updated potential collisions computed for object FENGYUN 1C DEB.

Target Orbit TCA Probability of collision Miss distance Type
IRIDIUM 33 DEB LEO 2025-09-26 09:15:17 0.0001748272 107.0 (m) DEBRIS
DELTA 1 R/B SSO 2025-05-28 06:04:38 0.000163641 109.0 (m) ROCKET BODY
GB 3 LEO 2024-06-04 05:19:20 0.0002407529 662.0 (m) PAYLOAD

Associated space launch

Chinese polar orbiting meteorological satellite

FENGYUN 1C DEB was lifted into orbit during the mission ‘Long March 4B | Feng Yun 1C’, on board a Long March 4B space rocket.

The launch took place on May 10, 1999, 1:33 a.m. from Launch Complex 7.

For more information about the launch, click the button.

Launch to space Long March 4B | Feng Yun 1C
Long March 4B | Feng Yun 1C

Agency: N/A

Status: Launch Successful

Launch date: May 10, 1999, 1:33 a.m. UTC

Rocket: Long March 4B

Launch pad: Launch Complex 7

Location: Taiyuan Satellite Launch Center, People's Republic of China

...

Latest news about this satellite

There are no fresh news available about this satellite. Check back as we update our databases every day.


Newsletter sign-up

Weekly statistics, charts and insights to help you stay on top of the space industry.